CAPE
668 476 718 635 594 521 491 575 719 825 889 956 909 704 606 717 820 839 819 654 466 325 220 127 71 8 0 0 0 0 26 113
714 643 529 684 695 349 392 499 562 647 698 665 472 383 426 519 629 725 648 477 251 149 53 29 12 0 0 0 0 0 0 93
727 638 579 578 494 537 401 450 458 496 541 305 224 334 319 393 210 478 370 181 83 39 6 0 0 0 0 0 0 0 8 97
733 754 599 550 307 548 599 613 637 704 692 559 375 344 208 42 148 218 122 53 21 2 0 0 0 29 23 0 0 0 0 267
659 688 684 594 360 533 508 587 651 742 730 582 400 283 270 112 232 171 171 13 59 8 14 0 0 0 1 0 0 0 0 2
624 572 632 751 624 417 428 490 542 536 518 456 343 287 305 175 99 146 174 22 17 31 28 29 24 1 0 0 0 0 0 0
791 697 763 671 660 472 494 441 419 397 407 250 138 234 188 131 97 21 39 48 2 4 1 7 3 0 0 0 0 0 0 0
834 845 678 514 659 594 623 481 418 436 317 230 18 251 183 91 70 3 0 23 0 0 0 0 0 0 0 0 0 0 0 0
674 843 908 767 742 712 660 452 390 393 279 218 7 289 214 52 6 0 0 0 4 0 0 0 0 0 0 0 0 0 0 0
521 565 775 875 875 785 602 506 468 304 216 115 28 200 167 77 1 0 0 0 0 0 0 0 0 0 0 0 0 0 0 0
374 576 622 772 772 708 608 546 400 282 249 195 181 136 117 62 2 0 3 0 0 0 0 0 0 0 0 0 0 0 0 0
298 545 649 636 600 501 313 373 235 321 377 335 263 200 84 69 4 0 0 0 0 0 0 0 0 0 0 0 0 0 0 0
114 333 613 430 285 133 44 55 119 329 362 325 309 323 136 73 7 0 0 0 0 0 0 0 0 0 0 0 0 0 0 0
68 246 531 505 479 281 275 290 255 262 266 240 310 298 254 118 163 12 0 0 0 0 0 0 0 0 0 0 0 25 98 26
170 83 233 427 434 448 316 21 13 56 129 215 335 258 228 171 119 88 37 36 11 10 6 4 10 6 3 56 186 191 314 338
599 291 120 193 372 117 184 13 3 9 118 150 142 141 225 149 199 87 50 27 49 53 7 18 35 54 30 25 138 259 256 332
776 704 367 149 204 179 143 54 14 69 73 90 110 166 153 120 130 108 102 64 59 140 97 127 81 105 146 197 117 140 146 240
0 751 819 516 184 212 233 213 118 52 126 118 87 131 118 141 122 176 113 103 124 147 215 162 251 202 286 310 383 355 459 270
3 3 184 1003 674 225 260 385 500 387 268 213 197 204 205 167 104 108 85 141 123 171 218 306 243 352 346 398 500 599 952 914
3 94 14 415 1079 840 418 330 513 680 677 468 645 485 456 382 350 259 224 99 235 347 393 518 485 721 556 685 686 685 545 933
CIN
-540 -514 -373 -372 -338 -336 -342 -273 -226 -186 -155 -129 -118 -147 -146 -102 -75 -71 -67 -96 -134 -152 -165 -204 -232 -161 -0 -0 -0 -0 -255 -120
-545 -502 -449 -346 -316 -447 -398 -323 -266 -231 -198 -200 -223 -225 -191 -144 -111 -94 -109 -145 -193 -208 -260 -303 -344 -0 -0 -0 -0 -0 -0 -137
-537 -530 -476 -409 -405 -371 -405 -344 -313 -264 -217 -279 -314 -192 -193 -169 -215 -158 -183 -236 -284 -329 -288 -0 -0 -0 -0 -0 -0 -0 -262 -136
-550 -507 -516 -457 -488 -377 -319 -269 -217 -176 -150 -173 -206 -204 -218 -322 -242 -228 -275 -355 -399 -480 -0 -0 -0 -301 -308 -0 -0 -0 -0 -93
-555 -536 -502 -469 -503 -395 -380 -317 -252 -192 -171 -186 -221 -231 -206 -250 -200 -218 -221 -440 -302 -400 -324 -0 -0 -0 -48 -0 -0 -0 -0 -8
-542 -563 -516 -443 -435 -466 -433 -393 -345 -314 -291 -275 -275 -255 -220 -251 -274 -250 -237 -367 -394 -356 -366 -369 -340 -119 -0 -0 -0 -0 -0 -0
-449 -493 -482 -504 -465 -476 -438 -432 -423 -406 -380 -409 -423 -317 -304 -305 -311 -393 -337 -313 -276 -487 -308 -281 -444 -0 -0 -0 -0 -0 -0 -0
-416 -401 -479 -548 -461 -468 -428 -440 -435 -406 -443 -465 -607 -363 -348 -368 -362 -217 -133 -369 -0 -0 -0 -0 -0 -0 -0 -0 -0 -0 -0 -0
-409 -369 -358 -421 -411 -408 -408 -468 -462 -435 -472 -491 -717 -397 -382 -429 -339 -16 -0 -2 -253 -0 -0 -0 -0 -0 -0 -0 -0 -0 -0 -0
-440 -412 -372 -347 -359 -367 -401 -431 -444 -494 -512 -554 -640 -461 -439 -439 -301 -0 -0 -0 -0 -0 -0 -0 -0 -0 -0 -0 -0 -0 -0 -0
-508 -415 -406 -363 -345 -362 -385 -386 -454 -528 -522 -535 -526 -506 -482 -469 -532 -0 -494 -0 -0 -0 -0 -0 -0 -0 -0 -0 -0 -0 -0 -0
-488 -439 -396 -365 -354 -382 -454 -427 -518 -494 -485 -517 -516 -504 -532 -496 -565 -260 -0 -0 -0 -0 -0 -0 -0 -0 -0 -0 -0 -0 -0 -0
-504 -458 -406 -464 -509 -577 -625 -649 -627 -495 -485 -510 -521 -496 -535 -543 -418 -1 -0 -0 -0 -0 -0 -0 -0 -0 -0 -0 -0 -0 -0 -0
-526 -529 -435 -460 -447 -523 -445 -458 -468 -477 -480 -527 -516 -543 -539 -561 -518 -598 -0 -9 -0 -0 -0 -0 -0 -0 -0 -0 -0 -202 -275 -252
-461 -563 -552 -502 -442 -391 -418 -621 -528 -570 -572 -595 -576 -571 -577 -580 -573 -543 -570 -530 -508 -511 -498 -456 -365 -266 -183 -210 -166 -172 -183 -210
-301 -457 -590 -598 -481 -549 -508 -611 -562 -685 -656 -665 -633 -624 -571 -590 -545 -602 -628 -623 -556 -527 -501 -433 -362 -290 -340 -340 -217 -181 -140 -134
-203 -261 -403 -523 -519 -482 -517 -523 -586 -601 -595 -617 -623 -603 -611 -586 -547 -567 -570 -577 -539 -448 -469 -402 -371 -264 -246 -183 -236 -209 -219 -143
-0 -214 -237 -315 -459 -423 -451 -478 -497 -524 -525 -579 -621 -595 -617 -578 -556 -466 -503 -481 -478 -436 -364 -370 -276 -259 -181 -174 -140 -104 -108 -125
-628 -283 -286 -191 -310 -473 -441 -453 -380 -380 -406 -452 -458 -496 -519 -525 -448 -406 -420 -396 -415 -375 -313 -271 -278 -169 -162 -121 -91 -99 -36 -8
-68 -425 -213 -296 -159 -218 -316 -322 -271 -251 -230 -294 -262 -293 -312 -309 -268 -274 -284 -328 -272 -196 -144 -118 -166 -48 -73 -77 -61 -67 -69 -42
Wind_Speed
18 18 15 15 15 15 16 17 17 17 17 17 16 15 14 14 13 12 13 12 12 12 11 11 10 8 7 6 4 3 3 5
17 17 16 15 15 14 14 15 15 15 15 15 14 13 13 12 12 12 12 12 12 12 11 10 9 7 6 4 4 2 2 6
16 17 16 15 15 14 14 13 13 13 13 13 13 11 13 14 10 11 11 11 12 11 11 10 9 6 4 2 1 1 0 5
17 16 17 15 12 15 14 14 12 13 13 14 10 11 10 10 10 11 10 10 11 11 10 8 8 6 5 3 2 1 2 4
17 16 15 16 12 11 8 8 9 8 12 12 10 8 8 8 7 8 8 10 8 9 9 8 9 6 5 4 3 4 3 3
17 18 16 15 10 10 11 10 10 9 10 12 9 7 9 8 7 8 9 8 9 9 7 8 8 7 6 6 6 5 4 4
19 19 18 15 14 11 11 11 10 11 11 12 9 10 9 9 8 7 8 8 9 9 8 8 8 8 7 7 7 7 6 5
18 19 17 16 15 15 11 10 11 11 11 12 13 11 10 10 9 8 8 9 9 8 8 8 8 8 8 9 8 8 8 7
18 18 18 18 18 15 12 12 11 11 10 13 14 14 12 12 9 9 9 8 9 8 8 7 7 7 9 8 8 9 8 9
18 16 17 18 16 13 11 12 12 11 11 10 15 15 14 12 10 10 9 8 8 8 8 8 8 8 7 7 7 8 9 10
22 19 20 18 16 13 13 13 12 12 12 11 15 15 15 12 10 10 10 8 8 8 8 8 7 8 7 7 7 8 8 8
19 17 19 17 12 11 10 10 11 11 12 13 17 14 16 13 11 11 10 9 9 9 10 8 7 7 7 8 8 8 8 8
20 19 19 14 12 11 10 13 12 12 12 16 17 15 16 15 12 12 11 11 12 11 9 10 8 6 5 7 9 11 12 10
20 21 21 19 14 13 11 12 11 11 11 14 16 17 18 16 15 13 14 11 12 12 12 8 7 7 5 4 5 5 7 10
18 19 20 19 19 12 10 7 8 10 12 13 15 18 18 18 17 13 13 12 10 12 13 14 9 8 12 7 3 6 2 3
18 18 19 18 20 17 20 15 13 12 12 11 13 18 18 18 16 15 13 10 12 12 12 12 12 10 6 10 12 5 5 5
13 16 18 16 19 18 15 17 13 8 9 13 14 14 17 18 16 15 14 11 12 12 13 14 11 11 11 7 10 11 11 11
7 12 17 17 17 20 20 20 17 12 13 12 10 10 11 16 17 14 13 13 13 11 12 14 12 11 10 10 10 7 9 9
9 8 12 15 16 16 19 18 15 16 13 10 11 10 10 12 14 12 11 12 12 11 12 13 13 12 12 10 8 10 8 6
18 14 4 6 10 11 11 14 10 9 11 10 9 10 10 13 14 14 15 14 12 12 10 11 11 9 14 12 9 9 8 9
Wind_Direction
151 157 156 148 150 149 147 148 149 149 149 149 149 148 148 148 145 141 136 138 141 143 146 149 152 145 136 131 108 116 176 173
155 155 162 163 159 150 150 150 151 150 150 146 145 146 147 147 144 143 144 145 148 150 152 157 156 148 144 134 85 124 149 170
163 158 162 166 166 160 149 151 149 147 148 146 146 164 164 160 156 149 151 153 154 159 163 165 160 157 161 133 207 113 143 193
168 165 164 167 167 165 166 166 171 171 171 168 167 166 170 170 162 155 157 161 162 166 170 165 180 186 181 191 216 201 217 195
175 167 166 171 169 171 169 170 171 175 174 174 170 167 169 170 165 170 171 174 178 179 177 194 195 197 197 204 215 226 225 216
179 172 173 174 172 178 173 174 175 175 179 179 175 176 179 178 177 182 181 181 183 187 188 192 199 205 211 210 214 225 217 220
189 181 178 172 176 178 180 182 183 181 179 185 182 186 186 182 182 187 193 185 189 190 196 195 199 206 212 221 221 224 225 227
190 192 182 177 186 182 181 182 182 186 185 187 191 193 189 190 188 192 197 197 195 197 198 201 207 211 214 217 224 228 228 230
197 193 188 187 190 186 185 184 186 190 193 192 194 201 195 193 194 199 203 201 202 203 206 215 224 219 229 223 229 231 235 238
193 195 192 194 194 190 191 190 191 194 197 196 198 202 200 195 198 205 201 200 207 211 208 211 221 229 237 237 234 233 235 239
190 193 194 194 198 195 196 199 201 200 199 200 202 202 199 201 205 205 196 203 208 214 218 224 220 227 236 245 250 251 248 245
198 189 189 191 192 196 202 205 208 212 208 205 199 202 199 202 208 207 202 206 212 212 222 219 240 247 247 248 250 248 248 246
200 194 193 184 189 192 202 212 210 212 216 212 204 202 200 202 209 205 203 211 214 210 215 225 231 235 259 255 256 245 240 237
195 198 193 194 191 191 205 210 221 220 216 215 213 206 202 205 208 206 204 207 213 211 207 209 230 206 235 256 278 253 232 231
195 196 198 196 195 191 198 200 217 208 215 217 214 212 208 209 207 210 208 207 209 209 207 208 220 210 214 237 222 240 296 183
204 200 197 195 189 194 201 202 202 210 213 217 214 213 214 213 210 206 203 207 214 208 206 212 220 221 212 231 250 277 275 275
224 211 202 192 195 203 202 216 217 202 210 212 210 209 215 215 213 209 211 211 218 215 211 209 211 224 221 206 231 239 245 257
282 228 214 200 197 204 206 212 219 211 208 208 207 208 208 211 211 215 216 218 217 214 214 217 222 224 232 227 226 230 235 236
1 281 250 215 202 206 216 222 223 228 225 222 215 205 203 204 210 215 216 220 221 216 213 217 217 228 227 235 235 242 253 245
31 26 359 305 221 217 221 230 233 233 236 232 224 217 209 196 199 204 216 218 211 212 220 228 219 224 230 225 240 233 227 232